GW1213 Weather Reports


time (UTC)temp
F
wind
direction
speed
knots
gust
knots
rain 1hr
in
rain 24hr
in
rain mn
in
humidity
%
barometer
mb
20260507043048 65 0 0.0 0.0 0.00 0.07 0.00 90 1009.5
20260507042539 65 0 0.0 0.0 0.00 0.07 0.00 90 1009.3
20260507042038 65 0 0.0 0.0 0.00 0.07 0.00 90 1009.1
20260507041559 65 0 0.0 0.0 0.00 0.07 0.00 90 1008.9
20260507041038 65 0 0.0 0.0 0.00 0.07 0.00 90 1008.9
20260507040538 65 0 0.0 0.0 0.00 0.07 0.00 90 1009.0
20260507040049 65 0 0.0 0.0 0.00 0.07 0.00 90 1009.1
20260507035535 65 0 0.0 0.0 0.00 0.07 0.07 89 1009.0
20260507035039 65 0 0.0 0.0 0.00 0.07 0.07 90 1008.9
20260507034558 65 0 0.0 0.0 0.00 0.07 0.07 90 1008.9
20260507034038 65 0 0.0 0.0 0.00 0.07 0.07 89 1008.8
20260507033538 65 0 0.0 0.0 0.00 0.07 0.07 89 1008.8
20260507033054 65 0 0.0 0.0 0.00 0.07 0.07 89 1008.6
20260507032538 65 0 0.0 0.0 0.00 0.07 0.07 89 1008.6
20260507032038 65 0 0.0 0.0 0.00 0.07 0.07 89 1008.6
20260507031603 65 0 0.0 0.0 0.00 0.07 0.07 89 1008.7
20260507031038 65 0 0.0 0.0 0.00 0.07 0.07 89 1009.0
20260507030537 65 0 0.0 0.0 0.00 0.07 0.07 89 1009.1
20260507030056 65 0 0.0 0.0 0.00 0.07 0.07 88 1009.0
20260507025538 65 0 0.0 0.0 0.00 0.07 0.07 88 1008.7
20260507025039 65 0 0.0 0.0 0.00 0.07 0.07 88 1008.7
20260507024555 65 0 0.0 0.0 0.00 0.07 0.07 88 1008.8
20260507024037 65 0 0.0 0.0 0.00 0.07 0.07 88 1008.7
20260507023538 66 0 0.0 0.0 0.00 0.07 0.07 88 1008.6
20260507023104 66 0 0.0 0.0 0.00 0.07 0.07 88 1008.2
20260507022643 66 0 0.0 0.0 0.00 0.07 0.07 88 1007.9
20260507022535 66 0 0.0 0.0 0.00 0.07 0.07 88 1007.9
20260507022036 66 0 0.0 0.9 0.00 0.07 0.07 87 1007.9
20260507021546 66 0 0.0 0.9 0.00 0.07 0.07 86 1008.0
20260507021034 66 0 0.0 0.0 0.00 0.07 0.07 86 1008.1
20260507020536 66 0 0.0 0.0 0.00 0.07 0.07 86 1008.3
20260507020056 66 0 0.0 0.0 0.00 0.07 0.07 86 1008.6
20260507015535 66 0 0.0 0.0 0.00 0.07 0.07 86 1008.4
20260507015035 67 0 0.0 0.0 0.00 0.07 0.07 85 1008.5
20260507014600 67 0 0.0 0.0 0.00 0.07 0.07 83 1008.6
20260507014035 67 0 0.0 0.0 0.00 0.07 0.07 83 1008.5
20260507013534 67 0 0.0 0.9 0.00 0.07 0.07 82 1008.6
20260507013047 67 0 0.0 0.9 0.00 0.07 0.07 82 1008.7
20260507012534 68 0 0.0 0.0 0.00 0.07 0.07 82 1008.7
20260507012035 68 0 0.0 0.9 0.00 0.07 0.07 81 1008.7
20260507011548 68 0 0.0 0.9 0.00 0.07 0.07 80 1008.7
20260507011034 68 0 0.0 0.0 0.00 0.07 0.07 80 1008.5
20260507010534 68 0 0.0 3.5 0.00 0.07 0.07 80 1008.2
20260507010047 68 0 0.0 3.5 0.00 0.07 0.07 79 1008.2
20260507005536 69 0 0.0 3.5 0.00 0.07 0.07 79 1008.4
20260507005034 69 0 0.9 3.5 0.00 0.07 0.07 79 1008.2
20260507004544 69 0 0.0 0.9 0.00 0.07 0.07 79 1008.1
20260507004035 69 0 0.0 1.7 0.00 0.07 0.07 79 1008.0
20260507003538 69 180 0.0 2.6 0.00 0.07 0.07 78 1008.1
20260507003051 69 221 0.0 3.5 0.00 0.07 0.07 78 1008.0
20260507002534 69 0 0.0 3.5 0.00 0.07 0.07 78 1008.2
20260507002035 69 207 0.0 4.3 0.00 0.07 0.07 78 1008.1
20260507001548 70 0 0.9 5.2 0.00 0.07 0.07 78 1008.1
20260507001034 70 196 1.7 5.2 0.00 0.07 0.07 78 1008.3
20260507000538 70 0 0.9 5.2 0.00 0.07 0.07 78 1008.1
20260507000048 70 0 0.0 4.3 0.00 0.07 0.07 77 1008.1
20260506235535 70 216 0.0 4.3 0.00 0.07 0.07 77 1008.2
20260506235035 70 278 0.9 4.3 0.00 0.07 0.07 77 1007.8
20260506234554 70 0 0.0 4.3 0.00 0.07 0.07 77 1007.8
20260506234035 70 0 0.9 5.2 0.00 0.07 0.07 77 1007.8
20260506233537 71 254 1.7 7.0 0.00 0.07 0.07 77 1007.6
20260506233055 71 121 1.7 7.0 0.00 0.07 0.07 76 1007.5
20260506232535 71 167 2.6 7.0 0.00 0.07 0.07 76 1007.6
20260506232035 71 240 0.9 7.0 0.00 0.07 0.07 76 1007.5
20260506231545 71 248 0.9 7.8 0.00 0.07 0.07 76 1007.6
20260506231035 71 0 1.7 8.7 0.00 0.07 0.07 75 1007.7
20260506230537 71 236 0.9 8.7 0.00 0.07 0.07 75 1007.7
20260506230053 71 190 1.7 7.8 0.00 0.07 0.07 75 1007.6
20260506225539 71 0 2.6 7.8 0.00 0.07 0.07 75 1007.7
20260506225035 71 138 0.9 5.2 0.00 0.07 0.07 74 1007.7
20260506224549 71 0 0.9 7.8 0.00 0.07 0.07 74 1007.7
20260506224034 71 250 1.7 9.6 0.00 0.07 0.07 74 1007.7
20260506223534 72 144 1.7 9.6 0.00 0.07 0.07 74 1007.6
20260506223047 72 198 2.6 9.6 0.00 0.07 0.07 73 1007.7
20260506222535 72 216 1.7 9.6 0.00 0.07 0.07 73 1007.8
20260506222034 72 232 1.7 7.8 0.00 0.07 0.07 73 1007.7
20260506221547 72 0 0.9 9.6 0.00 0.07 0.07 73 1007.7
20260506221035 72 272 3.5 9.6 0.00 0.07 0.07 73 1007.6
20260506220535 72 207 2.6 9.6 0.00 0.07 0.07 72 1007.7
20260506220047 72 222 2.6 9.6 0.00 0.07 0.07 72 1007.6
20260506215539 72 0 0.9 7.0 0.00 0.07 0.07 73 1007.7
20260506215036 72 140 1.7 8.7 0.00 0.07 0.07 72 1007.4
20260506214546 72 184 3.5 12.2 0.00 0.07 0.07 72 1007.5
20260506214035 72 212 1.7 12.2 0.00 0.07 0.07 72 1007.6
20260506213537 72 162 3.5 10.4 0.00 0.07 0.07 72 1007.7
20260506213102 72 254 3.5 10.4 0.00 0.07 0.07 72 1007.9
20260506212537 72 212 1.7 6.1 0.00 0.07 0.07 72 1007.7
20260506212038 72 266 2.6 6.1 0.00 0.07 0.07 73 1007.5
20260506211551 72 282 0.9 7.0 0.00 0.07 0.07 73 1007.7
20260506211034 72 161 1.7 7.0 0.00 0.07 0.07 73 1007.7
20260506210535 71 181 1.7 7.8 0.00 0.07 0.07 73 1007.6
20260506210047 71 221 1.7 7.8 0.00 0.07 0.07 73 1007.6
20260506205537 71 178 1.7 7.8 0.00 0.07 0.07 73 1007.6
20260506205037 71 159 1.7 7.8 0.00 0.07 0.07 73 1007.6
20260506204551 71 194 1.7 9.6 0.00 0.07 0.07 73 1007.7
20260506204036 71 204 1.7 9.6 0.00 0.07 0.07 74 1007.6
20260506203534 70 242 2.6 9.6 0.00 0.07 0.07 74 1007.7
20260506203046 70 143 2.6 8.7 0.00 0.07 0.07 74 1007.6
20260506202535 70 234 3.5 8.7 0.00 0.07 0.07 74 1007.6
20260506202034 70 0 1.7 11.3 0.00 0.07 0.07 74 1007.6
20260506201551 70 167 2.6 11.3 0.00 0.07 0.07 75 1007.8
20260506201038 69 245 1.7 9.6 0.00 0.07 0.07 76 1007.7
20260506200538 69 261 4.3 9.6 0.00 0.07 0.07 76 1007.8
20260506200054 69 92 1.7 7.0 0.00 0.07 0.07 77 1007.7
20260506195538 68 222 2.6 12.2 0.00 0.07 0.07 77 1007.6
20260506195038 68 192 3.5 12.2 0.00 0.07 0.07 78 1007.7
20260506194552 68 237 1.7 7.8 0.00 0.07 0.07 78 1007.8
20260506194034 68 242 3.5 7.8 0.00 0.07 0.07 78 1007.9
20260506193537 68 163 2.6 8.7 0.00 0.07 0.07 78 1007.8
20260506193050 68 187 1.7 8.7 0.00 0.07 0.07 79 1008.0
20260506192538 68 232 1.7 7.8 0.00 0.07 0.07 79 1008.3
20260506192038 68 205 1.7 7.8 0.00 0.07 0.07 79 1008.4
20260506191546 68 204 1.7 8.7 0.00 0.07 0.07 79 1008.3
20260506191039 68 0 0.9 9.6 0.00 0.07 0.07 79 1008.5
20260506190538 67 150 1.7 9.6 0.00 0.07 0.07 79 1008.6
20260506190051 67 0 2.6 9.6 0.00 0.07 0.07 80 1008.6
20260506185538 67 173 1.7 12.2 0.00 0.07 0.07 79 1008.6
20260506185038 67 0 4.3 12.2 0.00 0.07 0.07 79 1008.8
20260506184552 67 184 3.5 9.6 0.00 0.07 0.07 79 1008.8
20260506184038 67 253 2.6 9.6 0.00 0.07 0.07 79 1008.8
20260506183538 67 154 2.6 8.7 0.00 0.07 0.07 79 1008.9
20260506183051 67 284 1.7 8.7 0.00 0.07 0.07 79 1008.7
20260506182538 67 146 2.6 7.8 0.00 0.07 0.07 79 1008.9
20260506182038 67 193 2.6 8.7 0.00 0.07 0.07 79 1008.9
20260506181551 67 238 2.6 8.7 0.00 0.07 0.07 80 1009.0
20260506181038 67 238 2.6 8.7 0.00 0.07 0.07 80 1009.1
20260506180539 67 194 1.7 9.6 0.00 0.07 0.07 80 1008.9
20260506180059 67 191 2.6 10.4 0.00 0.07 0.07 80 1008.8
20260506175538 67 221 1.7 10.4 0.00 0.07 0.07 80 1009.1
20260506175038 67 188 3.5 10.4 0.00 0.07 0.07 80 1009.0
20260506174556 67 244 2.6 7.0 0.00 0.07 0.07 80 1009.0
20260506174038 66 263 1.7 8.7 0.00 0.07 0.07 80 1009.1
20260506173539 66 296 3.5 8.7 0.00 0.07 0.07 80 1009.1
20260506173051 66 194 0.9 8.7 0.00 0.07 0.07 82 1009.1
20260506172538 66 226 2.6 7.0 0.00 0.07 0.07 81 1009.1
20260506172038 66 95 0.9 7.0 0.00 0.07 0.07 82 1009.2
20260506171556 66 0 2.6 7.8 0.00 0.07 0.07 81 1009.2
20260506171052 66 181 2.6 8.7 0.00 0.07 0.07 81 1009.2
20260506170538 66 169 0.9 8.7 0.00 0.07 0.07 82 1009.2
20260506170105 65 198 3.5 8.7 0.00 0.07 0.07 82 1009.2
20260506165538 65 242 2.6 8.7 0.00 0.07 0.07 82 1009.2
20260506165039 65 144 2.6 8.7 0.00 0.07 0.07 82 1009.3
20260506164547 65 270 0.9 7.0 0.00 0.07 0.07 83 1009.4
20260506164038 65 0 1.7 9.6 0.00 0.07 0.07 83 1009.6
20260506163542 65 200 2.6 10.4 0.00 0.07 0.07 84 1009.5
20260506163106 65 204 2.6 10.4 0.00 0.07 0.07 84 1009.6
20260506162542 64 130 2.6 9.6 0.00 0.07 0.07 85 1009.3
20260506162041 64 157 2.6 9.6 0.00 0.07 0.07 85 1010.2
20260506161548 64 178 2.6 12.2 0.00 0.07 0.07 86 1010.0
20260506161042 63 204 3.5 12.2 0.00 0.07 0.07 86 1009.9
20260506160538 63 186 1.7 7.0 0.00 0.07 0.07 87 1009.9
20260506160045 63 164 0.9 7.0 0.00 0.07 0.07 88 1009.8
20260506155541 63 64 1.7 7.0 0.01 0.07 0.07 89 1009.7
20260506155038 63 190 0.9 8.7 0.01 0.07 0.07 89 1009.8
20260506154607 62 199 0.9 8.7 0.02 0.07 0.07 89 1009.9
20260506154038 62 26 1.7 7.8 0.02 0.07 0.07 89 1009.9
20260506153537 62 215 0.9 7.0 0.02 0.07 0.07 90 1009.8
20260506153059 62 185 1.7 6.1 0.02 0.07 0.07 89 1009.9
20260506152538 62 125 1.7 7.0 0.03 0.07 0.07 89 1009.9
20260506152035 62 0 2.6 7.8 0.05 0.07 0.07 89 1009.8
20260506151548 62 206 1.7 7.8 0.06 0.07 0.07 89 1009.7
20260506151038 62 348 1.7 7.0 0.06 0.07 0.07 89 1009.6
20260506150538 62 69 0.9 7.0 0.06 0.07 0.07 89 1009.7
20260506150048 62 250 2.6 7.0 0.06 0.07 0.07 88 1009.9
20260506145539 62 0 2.6 7.0 0.05 0.06 0.06 89 1010.0
20260506145038 62 360 1.7 6.1 0.05 0.06 0.06 89 1010.2
20260506144548 62 175 0.9 6.1 0.04 0.05 0.05 89 1010.3
20260506144038 62 229 0.9 6.1 0.04 0.05 0.05 88 1010.6
20260506143542 62 173 0.9 6.1 0.04 0.05 0.05 87 1010.4
20260506143059 63 193 0.9 6.1 0.04 0.05 0.05 87 1010.6
20260506142541 63 89 0.0 4.3 0.03 0.04 0.04 87 1010.6
20260506142038 63 0 1.7 6.1 0.01 0.02 0.02 86 1010.4
20260506141549 63 0 1.7 6.1 0.01 0.01 0.01 85 1010.4
20260506141041 63 132 0.9 6.1 0.01 0.01 0.01 85 1010.4
20260506140540 63 103 0.9 6.1 0.01 0.01 0.01 85 1010.2
20260506140054 63 190 1.7 6.1 0.01 0.01 0.01 85 1010.2
20260506135537 63 0 0.9 6.1 0.01 0.01 0.01 84 1010.2
20260506135037 63 0 0.9 6.1 0.01 0.01 0.01 84 1010.0
20260506134548 63 173 0.9 5.2 0.01 0.01 0.01 84 1010.1
20260506134039 63 0 0.0 6.1 0.01 0.01 0.01 83 1010.2
20260506133539 63 0 0.9 6.1 0.01 0.01 0.01 83 1010.1
20260506133048 63 161 0.9 5.2 0.01 0.01 0.01 82 1010.1
20260506132538 63 159 0.9 6.1 0.01 0.01 0.01 81 1010.1
20260506132038 64 147 0.9 6.1 0.01 0.01 0.01 80 1010.1
20260506131547 64 170 1.7 6.1 0.00 0.00 0.00 78 1010.2
20260506131038 64 271 0.0 6.1 0.00 0.00 0.00 77 1010.4
20260506130539 64 213 1.7 6.1 0.00 0.00 0.00 77 1010.4
20260506130047 64 241 0.0 6.1 0.00 0.00 0.00 77 1010.3
20260506125542 64 0 1.7 6.1 0.00 0.00 0.00 76 1010.1
20260506125042 64 163 0.9 5.2 0.00 0.00 0.00 76 1010.1
20260506124555 65 108 0.9 6.1 0.00 0.00 0.00 74 1010.1
20260506124038 65 0 0.9 8.7 0.00 0.00 0.00 74 1010.2
20260506123538 65 171 1.7 8.7 0.00 0.00 0.00 72 1009.8
20260506123051 65 256 1.7 8.7 0.00 0.00 0.00 72 1009.8
20260506122538 65 136 1.7 7.0 0.00 0.00 0.00 72 1009.7
20260506122038 65 0 0.9 7.0 0.00 0.00 0.00 71 1009.9
20260506121552 65 166 1.7 7.8 0.00 0.00 0.00 71 1009.9
20260506121038 66 188 0.9 7.8 0.00 0.00 0.00 71 1009.9
20260506120539 66 159 0.9 8.7 0.00 0.00 0.00 71 1009.8
20260506120058 66 0 0.9 9.6 0.00 0.00 0.00 70 1010.0
20260506115539 66 142 1.7 9.6 0.00 0.00 0.00 70 1010.1
20260506115038 66 272 1.7 10.4 0.00 0.00 0.00 70 1010.2
20260506114558 66 205 1.7 10.4 0.00 0.00 0.00 70 1010.1
20260506114038 66 231 1.7 8.7 0.00 0.00 0.00 70 1010.2
20260506113541 66 142 2.6 8.7 0.00 0.00 0.00 70 1010.2
20260506113050 66 199 1.7 8.7 0.00 0.00 0.00 70 1009.9
20260506112539 66 261 1.7 8.7 0.00 0.00 0.00 70 1010.0
20260506112038 66 259 1.7 7.0 0.00 0.00 0.00 70 1009.9
20260506111554 66 241 2.6 6.1 0.00 0.00 0.00 70 1009.9
20260506111038 66 166 0.9 7.0 0.00 0.00 0.00 70 1009.8
20260506110538 66 245 1.7 7.8 0.00 0.00 0.00 70 1009.8
20260506110059 66 235 1.7 12.2 0.00 0.00 0.00 70 1009.7
20260506105538 66 248 2.6 12.2 0.00 0.00 0.00 71 1009.6
20260506105038 66 189 1.7 8.7 0.00 0.00 0.00 71 1009.5
20260506104548 66 121 3.5 9.6 0.00 0.00 0.00 71 1009.6
20260506104038 66 132 2.6 9.6 0.00 0.00 0.00 71 1009.7
20260506103539 66 171 0.9 7.8 0.00 0.00 0.00 71 1009.7
20260506103048 66 243 2.6 8.7 0.00 0.00 0.00 71 1009.6
20260506102539 66 0 1.7 8.7 0.00 0.00 0.00 71 1009.8
20260506102039 66 208 1.7 6.1 0.00 0.00 0.00 71 1009.8
20260506101602 66 131 0.9 6.1 0.00 0.00 0.00 71 1009.8
20260506101040 66 202 0.0 6.1 0.00 0.00 0.00 71 1009.8
20260506100538 66 161 1.7 6.1 0.00 0.00 0.00 71 1009.7
20260506100051 66 146 0.9 4.3 0.00 0.00 0.00 70 1009.8
20260506095540 66 0 0.9 6.1 0.00 0.00 0.00 70 1009.7
20260506095038 66 180 0.9 6.1 0.00 0.00 0.00 70 1009.7
20260506094607 66 146 0.9 6.1 0.00 0.00 0.00 70 1009.7
20260506094038 66 218 1.7 11.3 0.00 0.00 0.00 70 1009.6
20260506093538 66 200 0.9 11.3 0.00 0.00 0.00 70 1009.5
20260506093054 66 200 2.6 11.3 0.00 0.00 0.00 70 1009.5
20260506092538 66 152 0.9 5.2 0.00 0.00 0.00 70 1009.6
20260506092038 66 201 0.9 5.2 0.00 0.00 0.00 69 1009.5
20260506091548 66 211 2.6 8.7 0.00 0.00 0.00 69 1009.6
20260506091038 66 189 2.6 8.7 0.00 0.00 0.00 69 1009.7
20260506090538 66 239 0.9 5.2 0.00 0.00 0.00 69 1009.7
20260506090046 66 0 0.9 5.2 0.00 0.00 0.00 69 1009.7
20260506085538 66 182 0.9 5.2 0.00 0.00 0.00 68 1009.8
20260506085038 66 0 2.6 7.0 0.00 0.00 0.00 68 1009.9
20260506084548 66 0 1.7 12.2 0.00 0.00 0.00 68 1009.9
20260506084041 66 294 1.7 12.2 0.00 0.00 0.00 68 1009.7
20260506083539 66 156 2.6 8.7 0.00 0.00 0.00 68 1009.8
20260506083052 66 302 1.7 6.1 0.00 0.00 0.00 67 1009.8
20260506082541 67 250 1.7 6.1 0.00 0.00 0.00 67 1009.8
20260506082038 67 169 1.7 6.1 0.00 0.00 0.00 67 1009.9
20260506081551 67 250 1.7 6.1 0.00 0.00 0.00 67 1009.9
20260506081038 67 0 0.9 6.1 0.00 0.00 0.00 66 1009.9
20260506080538 67 182 0.9 7.0 0.00 0.00 0.00 66 1009.9
20260506073053 68 274 1.7 8.7 0.00 0.00 0.00 65 1009.8
20260506072538 68 234 1.7 8.7 0.00 0.00 0.00 64 1009.8
20260506072039 68 252 1.7 10.4 0.00 0.00 0.00 64 1009.9
20260506071553 68 196 3.5 12.2 0.00 0.00 0.00 64 1009.9
20260506071038 68 171 3.5 12.2 0.00 0.00 0.00 64 1009.9
20260506070538 68 61 1.7 8.7 0.00 0.00 0.00 64 1010.0
20260506062038 69 0 1.7 6.1 0.00 0.00 0.00 61 1010.3
20260506061548 69 159 0.9 5.2 0.00 0.00 0.00 60 1010.2
20260506061037 70 240 0.9 5.2 0.00 0.00 0.00 60 1010.2
20260506060538 70 0 0.0 9.6 0.00 0.00 0.00 59 1010.2
20260506051038 72 264 4.3 12.2 0.00 0.00 0.00 56 1010.4
20260506050538 72 163 3.5 12.2 0.00 0.00 0.00 56 1010.5
20260506045038 72 184 2.6 7.8 0.00 0.00 0.00 55 1010.7
20260506044552 72 254 2.6 8.7 0.00 0.00 0.00 54 1010.7
20260506044038 72 203 2.6 8.7 0.00 0.00 0.00 54 1010.5
20260506043536 72 185 2.6 11.3 0.00 0.00 0.00 54 1010.6